Time,TemperatureF,DewpointF,PressureIn,WindDirection,WindDirectionDegrees,WindSpeedMPH,WindSpeedGustMPH,Humidity,HourlyPrecipIn,Conditions,Clouds,dailyrainin,SoftwareType,DateUTC
2013-02-16 00:02:00,12.9,-2.6,30.23,North,-999,-999.0,-999.0,49,0.00,,,0.00,meteohub,2013-02-16 06:02:00,
2013-02-16 00:07:00,12.7,-2.7,30.23,North,-999,-999.0,-999.0,49,0.00,,,0.00,meteohub,2013-02-16 06:07:00,
2013-02-16 00:12:00,12.7,-2.7,30.23,North,-999,-999.0,-999.0,49,0.00,,,0.00,meteohub,2013-02-16 06:12:00,
2013-02-16 00:17:00,12.6,-3.5,30.23,North,-999,-999.0,-999.0,48,0.00,,,0.00,meteohub,2013-02-16 06:17:00,
2013-02-16 00:22:00,12.4,-3.6,30.23,North,-999,-999.0,-999.0,48,0.00,,,0.00,meteohub,2013-02-16 06:22:00,
2013-02-16 00:27:00,12.2,-3.8,30.23,North,-999,-999.0,-999.0,48,0.00,,,0.00,meteohub,2013-02-16 06:27:00,
2013-02-16 00:32:00,12.2,-3.8,30.23,North,-999,-999.0,-999.0,48,0.00,,,0.00,meteohub,2013-02-16 06:32:00,
2013-02-16 00:37:00,12.0,-3.5,30.23,North,-999,-999.0,-999.0,49,0.00,,,0.00,meteohub,2013-02-16 06:37:00,
2013-02-16 00:42:00,12.0,-3.5,30.23,North,-999,-999.0,-999.0,49,0.00,,,0.00,meteohub,2013-02-16 06:42:00,
2013-02-16 00:47:00,11.8,-3.6,30.23,North,-999,-999.0,-999.0,49,0.00,,,0.00,meteohub,2013-02-16 06:47:00,
2013-02-16 00:52:00,11.7,-3.8,30.23,North,-999,-999.0,-999.0,49,0.00,,,0.00,meteohub,2013-02-16 06:52:00,
2013-02-16 00:57:00,11.7,-3.8,30.23,North,-999,-999.0,-999.0,49,0.00,,,0.00,meteohub,2013-02-16 06:57:00,
2013-02-16 01:02:00,11.5,-4.0,30.23,North,-999,-999.0,-999.0,49,0.00,,,0.00,meteohub,2013-02-16 07:02:00,
2013-02-16 01:07:00,11.5,-4.0,30.23,North,-999,-999.0,-999.0,49,0.00,,,0.00,meteohub,2013-02-16 07:07:00,
2013-02-16 01:12:00,11.3,-4.2,30.23,North,-999,-999.0,-999.0,49,0.00,,,0.00,meteohub,2013-02-16 07:12:00,
2013-02-16 01:17:00,11.3,-4.2,30.23,North,-999,-999.0,-999.0,49,0.00,,,0.00,meteohub,2013-02-16 07:17:00,
2013-02-16 01:22:00,11.1,-4.4,30.23,North,-999,-999.0,-999.0,49,0.00,,,0.00,meteohub,2013-02-16 07:22:00,
2013-02-16 01:27:00,11.1,-4.4,30.23,North,-999,-999.0,-999.0,49,0.00,,,0.00,meteohub,2013-02-16 07:27:00,
2013-02-16 01:32:00,10.9,-4.5,30.23,North,-999,-999.0,-999.0,49,0.00,,,0.00,meteohub,2013-02-16 07:32:00,
2013-02-16 01:37:00,10.9,-4.5,30.23,North,-999,-999.0,-999.0,49,0.00,,,0.00,meteohub,2013-02-16 07:37:00,
2013-02-16 01:42:00,10.9,-4.5,30.23,North,-999,-999.0,-999.0,49,0.00,,,0.00,meteohub,2013-02-16 07:42:00,
2013-02-16 01:47:00,10.9,-4.5,30.23,North,-999,-999.0,-999.0,49,0.00,,,0.00,meteohub,2013-02-16 07:47:00,
2013-02-16 01:52:00,10.8,-4.7,30.22,North,-999,-999.0,-999.0,49,0.00,,,0.00,meteohub,2013-02-16 07:52:00,
2013-02-16 01:57:00,10.8,-4.7,30.23,North,-999,-999.0,-999.0,49,0.00,,,0.00,meteohub,2013-02-16 07:57:00,
2013-02-16 02:02:00,10.6,-4.9,30.23,North,-999,-999.0,-999.0,49,0.00,,,0.00,meteohub,2013-02-16 08:02:00,
2013-02-16 02:07:00,10.6,-4.9,30.22,North,-999,-999.0,-999.0,49,0.00,,,0.00,meteohub,2013-02-16 08:07:00,
2013-02-16 02:12:00,10.6,-4.9,30.22,North,-999,-999.0,-999.0,49,0.00,,,0.00,meteohub,2013-02-16 08:12:00,
2013-02-16 02:17:00,10.6,-4.9,30.23,North,-999,-999.0,-999.0,49,0.00,,,0.00,meteohub,2013-02-16 08:17:00,
2013-02-16 02:22:00,10.6,-4.9,30.22,North,-999,-999.0,-999.0,49,0.00,,,0.00,meteohub,2013-02-16 08:22:00,
2013-02-16 02:27:00,10.4,-4.9,30.22,North,-999,-999.0,-999.0,49,0.00,,,0.00,meteohub,2013-02-16 08:27:00,
2013-02-16 02:32:00,10.4,-4.9,30.22,North,-999,-999.0,-999.0,49,0.00,,,0.00,meteohub,2013-02-16 08:32:00,
2013-02-16 02:37:00,10.2,-6.9,30.22,North,-999,-999.0,-999.0,45,0.00,,,0.00,meteohub,2013-02-16 08:37:00,
2013-02-16 02:42:00,10.2,-6.5,30.22,North,-999,-999.0,-999.0,46,0.00,,,0.00,meteohub,2013-02-16 08:42:00,
2013-02-16 02:47:00,10.0,-6.7,30.22,North,-999,-999.0,-999.0,46,0.00,,,0.00,meteohub,2013-02-16 08:47:00,
2013-02-16 02:52:00,10.0,-6.7,30.22,North,-999,-999.0,-999.0,46,0.00,,,0.00,meteohub,2013-02-16 08:52:00,
2013-02-16 02:57:00,9.9,-6.3,30.22,North,-999,-999.0,-999.0,47,0.00,,,0.00,meteohub,2013-02-16 08:57:00,
2013-02-16 03:02:00,9.7,-6.5,30.22,North,-999,-999.0,-999.0,47,0.00,,,0.00,meteohub,2013-02-16 09:02:00,
2013-02-16 03:07:00,9.5,-6.7,30.22,North,-999,-999.0,-999.0,47,0.00,,,0.00,meteohub,2013-02-16 09:07:00,
2013-02-16 03:12:00,9.3,-6.9,30.21,North,-999,-999.0,-999.0,47,0.00,,,0.00,meteohub,2013-02-16 09:12:00,
2013-02-16 03:17:00,9.1,-6.5,30.21,North,-999,-999.0,-999.0,48,0.00,,,0.00,meteohub,2013-02-16 09:17:00,
2013-02-16 03:22:00,9.0,-6.7,30.21,North,-999,-999.0,-999.0,48,0.00,,,0.00,meteohub,2013-02-16 09:22:00,
2013-02-16 03:27:00,9.0,-6.7,30.21,North,-999,-999.0,-999.0,48,0.00,,,0.00,meteohub,2013-02-16 09:27:00,
2013-02-16 03:32:00,8.8,-6.9,30.21,North,-999,-999.0,-999.0,48,0.00,,,0.00,meteohub,2013-02-16 09:32:00,
2013-02-16 03:37:00,8.6,-7.1,30.21,North,-999,-999.0,-999.0,48,0.00,,,0.00,meteohub,2013-02-16 09:37:00,
2013-02-16 03:42:00,8.6,-7.1,30.21,NW,315,0.0,0.0,48,0.00,,,0.00,meteohub,2013-02-16 09:42:00,
2013-02-16 03:47:00,8.6,-6.7,30.21,North,-999,-999.0,0.0,49,0.00,,,0.00,meteohub,2013-02-16 09:47:00,
2013-02-16 03:52:00,8.6,-6.7,30.22,North,-999,-999.0,0.0,49,0.00,,,0.00,meteohub,2013-02-16 09:52:00,
2013-02-16 03:57:00,8.6,-6.7,30.21,North,-999,-999.0,0.0,49,0.00,,,0.00,meteohub,2013-02-16 09:57:00,
2013-02-16 04:02:00,8.6,-6.7,30.21,North,-999,-999.0,-999.0,49,0.00,,,0.00,meteohub,2013-02-16 10:02:00,
2013-02-16 04:07:00,8.6,-6.7,30.21,North,-999,-999.0,-999.0,49,0.00,,,0.00,meteohub,2013-02-16 10:07:00,
2013-02-16 04:12:00,8.4,-6.3,30.21,North,-999,-999.0,-999.0,50,0.00,,,0.00,meteohub,2013-02-16 10:12:00,
2013-02-16 04:17:00,8.4,-6.0,30.22,North,-999,-999.0,-999.0,51,0.00,,,0.00,meteohub,2013-02-16 10:17:00,
2013-02-16 04:22:00,8.4,-6.0,30.21,North,-999,-999.0,-999.0,51,0.00,,,0.00,meteohub,2013-02-16 10:22:00,
2013-02-16 04:27:00,8.2,-6.2,30.21,North,-999,-999.0,-999.0,51,0.00,,,0.00,meteohub,2013-02-16 10:27:00,
2013-02-16 04:32:00,8.1,-6.3,30.22,North,-999,-999.0,-999.0,51,0.00,,,0.00,meteohub,2013-02-16 10:32:00,
2013-02-16 04:37:00,8.1,-6.3,30.21,North,-999,-999.0,-999.0,51,0.00,,,0.00,meteohub,2013-02-16 10:37:00,
2013-02-16 04:42:00,7.9,-6.5,30.22,North,-999,-999.0,-999.0,51,0.00,,,0.00,meteohub,2013-02-16 10:42:00,
2013-02-16 04:47:00,7.9,-6.2,30.22,North,-999,-999.0,-999.0,52,0.00,,,0.00,meteohub,2013-02-16 10:47:00,
2013-02-16 04:52:00,7.7,-6.3,30.21,North,-999,-999.0,-999.0,52,0.00,,,0.00,meteohub,2013-02-16 10:52:00,
2013-02-16 04:57:00,7.5,-6.5,30.22,North,-999,-999.0,-999.0,52,0.00,,,0.00,meteohub,2013-02-16 10:57:00,
2013-02-16 05:02:00,7.5,-6.5,30.21,North,-999,-999.0,-999.0,52,0.00,,,0.00,meteohub,2013-02-16 11:02:00,
2013-02-16 05:07:00,7.5,-6.0,30.22,North,-999,-999.0,-999.0,53,0.00,,,0.00,meteohub,2013-02-16 11:07:00,
2013-02-16 05:12:00,7.3,-6.2,30.22,North,-999,-999.0,-999.0,53,0.00,,,0.00,meteohub,2013-02-16 11:12:00,
2013-02-16 05:17:00,7.2,-6.3,30.22,North,-999,-999.0,-999.0,53,0.00,,,0.00,meteohub,2013-02-16 11:17:00,
2013-02-16 05:22:00,7.2,-6.0,30.22,North,-999,-999.0,-999.0,54,0.00,,,0.00,meteohub,2013-02-16 11:22:00,
2013-02-16 05:27:00,7.3,-5.8,30.21,North,-999,-999.0,-999.0,54,0.00,,,0.00,meteohub,2013-02-16 11:27:00,
2013-02-16 05:32:00,7.2,-6.0,30.22,North,-999,-999.0,-999.0,54,0.00,,,0.00,meteohub,2013-02-16 11:32:00,
2013-02-16 05:37:00,7.0,-6.2,30.21,North,-999,-999.0,-999.0,54,0.00,,,0.00,meteohub,2013-02-16 11:37:00,
2013-02-16 05:42:00,7.0,-6.2,30.21,North,-999,-999.0,-999.0,54,0.00,,,0.00,meteohub,2013-02-16 11:42:00,
2013-02-16 05:47:00,7.0,-6.2,30.21,North,-999,-999.0,-999.0,54,0.00,,,0.00,meteohub,2013-02-16 11:47:00,
2013-02-16 05:52:00,6.8,-6.3,30.21,North,-999,-999.0,-999.0,54,0.00,,,0.00,meteohub,2013-02-16 11:52:00,
2013-02-16 05:57:00,6.8,-6.3,30.21,North,-999,-999.0,-999.0,54,0.00,,,0.00,meteohub,2013-02-16 11:57:00,
2013-02-16 06:02:00,6.8,-6.3,30.22,North,-999,-999.0,-999.0,54,0.00,,,0.00,meteohub,2013-02-16 12:02:00,
2013-02-16 06:07:00,6.8,-6.3,30.21,North,-999,-999.0,-999.0,54,0.00,,,0.00,meteohub,2013-02-16 12:07:00,
2013-02-16 06:12:00,6.8,-6.3,30.21,North,-999,-999.0,-999.0,54,0.00,,,0.00,meteohub,2013-02-16 12:12:00,
2013-02-16 06:17:00,6.8,-6.3,30.21,North,-999,-999.0,-999.0,54,0.00,,,0.00,meteohub,2013-02-16 12:17:00,
2013-02-16 06:22:00,6.8,-6.3,30.21,North,-999,-999.0,-999.0,54,0.00,,,0.00,meteohub,2013-02-16 12:22:00,
2013-02-16 06:27:00,6.6,-6.2,30.21,North,-999,-999.0,-999.0,55,0.00,,,0.00,meteohub,2013-02-16 12:27:00,
2013-02-16 06:32:00,6.8,-6.3,30.21,North,-999,-999.0,-999.0,54,0.00,,,0.00,meteohub,2013-02-16 12:32:00,
2013-02-16 06:37:00,6.8,-6.3,30.21,North,-999,-999.0,-999.0,54,0.00,,,0.00,meteohub,2013-02-16 12:37:00,
2013-02-16 06:42:00,7.0,-6.2,30.21,North,-999,-999.0,-999.0,54,0.00,,,0.00,meteohub,2013-02-16 12:42:00,
2013-02-16 06:47:00,7.0,-6.2,30.21,North,-999,-999.0,-999.0,54,0.00,,,0.00,meteohub,2013-02-16 12:47:00,
2013-02-16 06:52:00,7.2,-6.3,30.22,North,-999,-999.0,-999.0,53,0.00,,,0.00,meteohub,2013-02-16 12:52:00,
2013-02-16 06:57:00,7.3,-6.2,30.22,North,-999,-999.0,-999.0,53,0.00,,,0.00,meteohub,2013-02-16 12:57:00,
2013-02-16 07:02:00,7.3,-6.2,30.22,North,-999,-999.0,-999.0,53,0.00,,,0.00,meteohub,2013-02-16 13:02:00,
2013-02-16 07:07:00,7.5,-6.5,30.22,North,-999,-999.0,-999.0,52,0.00,,,0.00,meteohub,2013-02-16 13:07:00,
2013-02-16 07:12:00,7.7,-6.3,30.22,North,-999,-999.0,-999.0,52,0.00,,,0.00,meteohub,2013-02-16 13:12:00,
2013-02-16 07:17:00,7.9,-6.2,30.22,North,-999,-999.0,-999.0,52,0.00,,,0.00,meteohub,2013-02-16 13:17:00,
2013-02-16 07:22:00,7.9,-6.2,30.22,North,-999,-999.0,-999.0,52,0.00,,,0.00,meteohub,2013-02-16 13:22:00,
2013-02-16 07:27:00,8.1,-6.3,30.22,North,-999,-999.0,-999.0,51,0.00,,,0.00,meteohub,2013-02-16 13:27:00,
2013-02-16 07:32:00,8.1,-6.3,30.22,North,-999,-999.0,-999.0,51,0.00,,,0.00,meteohub,2013-02-16 13:32:00,
2013-02-16 07:37:00,8.4,-6.0,30.22,North,-999,-999.0,-999.0,51,0.00,,,0.00,meteohub,2013-02-16 13:37:00,
2013-02-16 07:42:00,8.6,-6.2,30.22,North,-999,-999.0,-999.0,50,0.00,,,0.00,meteohub,2013-02-16 13:42:00,
2013-02-16 07:47:00,8.8,-6.0,30.22,North,-999,-999.0,-999.0,50,0.00,,,0.00,meteohub,2013-02-16 13:47:00,
2013-02-16 07:52:00,9.0,-6.3,30.22,North,-999,-999.0,-999.0,49,0.00,,,0.00,meteohub,2013-02-16 13:52:00,
2013-02-16 07:57:00,9.3,-6.0,30.22,North,-999,-999.0,-999.0,49,0.00,,,0.00,meteohub,2013-02-16 13:57:00,
2013-02-16 08:02:00,9.3,-6.3,30.22,North,-999,-999.0,-999.0,48,0.00,,,0.00,meteohub,2013-02-16 14:02:00,
2013-02-16 08:07:00,9.3,-6.3,30.22,North,-999,-999.0,-999.0,48,0.00,,,0.00,meteohub,2013-02-16 14:07:00,
2013-02-16 08:12:00,9.7,-6.2,30.22,North,-999,-999.0,-999.0,48,0.00,,,0.00,meteohub,2013-02-16 14:12:00,
2013-02-16 08:17:00,9.7,-6.2,30.22,North,-999,-999.0,-999.0,48,0.00,,,0.00,meteohub,2013-02-16 14:17:00,
2013-02-16 08:22:00,9.7,-6.5,30.22,North,-999,-999.0,-999.0,47,0.00,,,0.00,meteohub,2013-02-16 14:22:00,
2013-02-16 08:27:00,10.0,-6.7,30.22,North,-999,-999.0,-999.0,46,0.00,,,0.00,meteohub,2013-02-16 14:27:00,
2013-02-16 08:32:00,10.2,-6.9,30.22,North,-999,-999.0,-999.0,45,0.00,,,0.00,meteohub,2013-02-16 14:32:00,
2013-02-16 08:37:00,10.6,-4.9,30.22,North,-999,-999.0,-999.0,49,0.00,,,0.00,meteohub,2013-02-16 14:37:00,
2013-02-16 08:42:00,10.9,-4.5,30.21,North,-999,-999.0,-999.0,49,0.00,,,0.00,meteohub,2013-02-16 14:42:00,
2013-02-16 08:47:00,11.3,-4.5,30.22,North,-999,-999.0,-999.0,48,0.00,,,0.00,meteohub,2013-02-16 14:47:00,
2013-02-16 08:52:00,11.3,-5.1,30.22,North,-999,-999.0,-999.0,47,0.00,,,0.00,meteohub,2013-02-16 14:52:00,
2013-02-16 08:57:00,11.8,-4.5,30.21,North,-999,-999.0,-999.0,47,0.00,,,0.00,meteohub,2013-02-16 14:57:00,
2013-02-16 09:02:00,12.0,-4.7,30.21,North,-999,-999.0,-999.0,46,0.00,,,0.00,meteohub,2013-02-16 15:02:00,
2013-02-16 09:07:00,12.2,-5.1,30.22,North,-999,-999.0,-999.0,45,0.00,,,0.00,meteohub,2013-02-16 15:07:00,
2013-02-16 09:12:00,12.7,-5.1,30.22,North,-999,-999.0,-999.0,44,0.00,,,0.00,meteohub,2013-02-16 15:12:00,
2013-02-16 09:17:00,13.3,-5.1,30.21,North,-999,-999.0,-999.0,43,0.00,,,0.00,meteohub,2013-02-16 15:17:00,
2013-02-16 09:22:00,13.1,-5.6,30.22,North,-999,-999.0,-999.0,42,0.00,,,0.00,meteohub,2013-02-16 15:22:00,
2013-02-16 09:27:00,13.6,-5.3,30.21,North,-999,-999.0,-999.0,42,0.00,,,0.00,meteohub,2013-02-16 15:27:00,
2013-02-16 09:32:00,14.2,-5.8,30.21,North,-999,-999.0,-999.0,40,0.00,,,0.00,meteohub,2013-02-16 15:32:00,
2013-02-16 09:37:00,14.5,-6.5,30.21,North,-999,-999.0,-999.0,38,0.00,,,0.00,meteohub,2013-02-16 15:37:00,
2013-02-16 09:42:00,15.1,-6.5,30.21,North,-999,-999.0,-999.0,37,0.00,,,0.00,meteohub,2013-02-16 15:42:00,
2013-02-16 09:47:00,14.9,-7.2,30.21,North,-999,-999.0,-999.0,36,0.00,,,0.00,meteohub,2013-02-16 15:47:00,
2013-02-16 09:52:00,14.2,-8.5,30.21,North,-999,-999.0,-999.0,35,0.00,,,0.00,meteohub,2013-02-16 15:52:00,
2013-02-16 09:57:00,14.2,-9.0,30.21,North,-999,-999.0,-999.0,34,0.00,,,0.00,meteohub,2013-02-16 15:57:00,
2013-02-16 10:02:00,15.4,-8.0,30.20,North,-999,-999.0,-999.0,34,0.00,,,0.00,meteohub,2013-02-16 16:02:00,
2013-02-16 10:07:00,16.0,-9.4,30.20,North,-999,-999.0,-999.0,31,0.00,,,0.00,meteohub,2013-02-16 16:07:00,
2013-02-16 10:12:00,15.8,-10.1,30.20,North,-999,-999.0,-999.0,30,0.00,,,0.00,meteohub,2013-02-16 16:12:00,
2013-02-16 10:17:00,15.4,-10.5,30.20,North,-999,-999.0,-999.0,30,0.00,,,0.00,meteohub,2013-02-16 16:17:00,
2013-02-16 10:22:00,14.4,-12.1,30.21,North,-999,-999.0,-999.0,29,0.00,,,0.00,meteohub,2013-02-16 16:22:00,
2013-02-16 10:27:00,14.0,-11.7,30.21,North,-999,-999.0,-999.0,30,0.00,,,0.00,meteohub,2013-02-16 16:27:00,
2013-02-16 10:32:00,14.0,-11.7,30.21,North,-999,-999.0,-999.0,30,0.00,,,0.00,meteohub,2013-02-16 16:32:00,
2013-02-16 10:37:00,14.7,-11.0,30.21,North,-999,-999.0,-999.0,30,0.00,,,0.00,meteohub,2013-02-16 16:37:00,
2013-02-16 10:42:00,14.5,-11.2,30.21,North,-999,-999.0,-999.0,30,0.00,,,0.00,meteohub,2013-02-16 16:42:00,
2013-02-16 10:47:00,15.3,-10.7,30.21,North,-999,-999.0,-999.0,30,0.00,,,0.00,meteohub,2013-02-16 16:47:00,
2013-02-16 10:52:00,16.3,-11.7,30.20,North,-999,-999.0,-999.0,27,0.00,,,0.00,meteohub,2013-02-16 16:52:00,
2013-02-16 10:57:00,15.6,-13.2,30.20,North,-999,-999.0,-999.0,26,0.00,,,0.00,meteohub,2013-02-16 16:57:00,
2013-02-16 11:02:00,15.8,-13.7,30.21,North,-999,-999.0,-999.0,25,0.00,,,0.00,meteohub,2013-02-16 17:02:00,
2013-02-16 11:07:00,15.3,-14.3,30.20,North,-999,-999.0,-999.0,25,0.00,,,0.00,meteohub,2013-02-16 17:07:00,
2013-02-16 11:12:00,15.6,-13.2,30.20,North,-999,-999.0,-999.0,26,0.00,,,0.00,meteohub,2013-02-16 17:12:00,
2013-02-16 11:17:00,16.0,-14.4,30.20,North,-999,-999.0,-999.0,24,0.00,,,0.00,meteohub,2013-02-16 17:17:00,
2013-02-16 11:22:00,15.4,-14.1,30.20,North,-999,-999.0,-999.0,25,0.00,,,0.00,meteohub,2013-02-16 17:22:00,
2013-02-16 11:27:00,16.0,-14.4,30.20,North,-999,-999.0,-999.0,24,0.00,,,0.00,meteohub,2013-02-16 17:27:00,
2013-02-16 11:32:00,14.9,-16.2,30.21,North,-999,-999.0,-999.0,23,0.00,,,0.00,meteohub,2013-02-16 17:32:00,
2013-02-16 11:37:00,15.3,-15.2,30.20,North,-999,-999.0,-999.0,24,0.00,,,0.00,meteohub,2013-02-16 17:37:00,
2013-02-16 11:42:00,15.8,-15.5,30.20,North,-999,-999.0,-999.0,23,0.00,,,0.00,meteohub,2013-02-16 17:42:00,
2013-02-16 11:47:00,16.7,-14.6,30.20,North,-999,-999.0,-999.0,23,0.00,,,0.00,meteohub,2013-02-16 17:47:00,
2013-02-16 11:52:00,17.4,-14.1,30.19,North,-999,-999.0,-999.0,23,0.00,,,0.00,meteohub,2013-02-16 17:52:00,
2013-02-16 11:57:00,17.6,-14.8,30.19,North,-999,-999.0,-999.0,22,0.00,,,0.00,meteohub,2013-02-16 17:57:00,
2013-02-16 12:02:00,16.9,-15.3,30.19,North,-999,-999.0,-999.0,22,0.00,,,0.00,meteohub,2013-02-16 18:02:00,
2013-02-16 12:07:00,16.7,-15.5,30.19,North,-999,-999.0,-999.0,22,0.00,,,0.00,meteohub,2013-02-16 18:07:00,
2013-02-16 12:12:00,16.9,-15.3,30.19,North,-999,-999.0,-999.0,22,0.00,,,0.00,meteohub,2013-02-16 18:12:00,
2013-02-16 12:17:00,17.1,-15.3,30.18,North,-999,-999.0,-999.0,22,0.00,,,0.00,meteohub,2013-02-16 18:17:00,
2013-02-16 12:27:00,16.9,-16.2,30.19,North,-999,-999.0,-999.0,21,0.00,,,0.00,meteohub,2013-02-16 18:27:00,
2013-02-16 12:32:00,17.2,-16.1,30.18,North,-999,-999.0,-999.0,21,0.00,,,0.00,meteohub,2013-02-16 18:32:00,
2013-02-16 12:37:00,17.1,-16.2,30.18,North,-999,-999.0,-999.0,21,0.00,,,0.00,meteohub,2013-02-16 18:37:00,
2013-02-16 12:42:00,17.1,-15.3,30.18,NW,315,0.0,0.0,22,0.00,,,0.00,meteohub,2013-02-16 18:42:00,
2013-02-16 12:47:00,18.7,-14.8,30.18,NW,315,0.0,0.0,21,0.00,,,0.00,meteohub,2013-02-16 18:47:00,
2013-02-16 12:52:00,19.6,-10.5,30.18,NW,315,0.0,0.0,25,0.00,,,0.00,meteohub,2013-02-16 18:52:00,
2013-02-16 12:57:00,19.4,-11.6,30.17,NW,315,0.0,0.0,24,0.00,,,0.00,meteohub,2013-02-16 18:57:00,
2013-02-16 13:02:00,19.4,-10.7,30.17,North,0,0.0,0.0,25,0.00,,,0.00,meteohub,2013-02-16 19:02:00,
2013-02-16 13:07:00,20.3,-9.9,30.17,North,0,0.0,0.0,25,0.00,,,0.00,meteohub,2013-02-16 19:07:00,
2013-02-16 13:12:00,18.9,-15.5,30.17,North,0,0.0,0.0,20,0.00,,,0.00,meteohub,2013-02-16 19:12:00,
2013-02-16 13:17:00,18.9,-14.6,30.17,NW,315,0.0,0.0,21,0.00,,,0.00,meteohub,2013-02-16 19:17:00,
2013-02-16 13:22:00,18.0,-15.3,30.18,NW,315,0.0,0.0,21,0.00,,,0.00,meteohub,2013-02-16 19:22:00,
2013-02-16 13:27:00,18.0,-14.4,30.18,WNW,293,0.0,0.0,22,0.00,,,0.00,meteohub,2013-02-16 19:27:00,
2013-02-16 13:32:00,17.6,-14.8,30.17,West,270,0.0,0.0,22,0.00,,,0.00,meteohub,2013-02-16 19:32:00,
2013-02-16 13:37:00,16.2,-14.3,30.18,West,270,0.0,0.0,24,0.00,,,0.00,meteohub,2013-02-16 19:37:00,
2013-02-16 13:42:00,16.2,-13.5,30.18,NNE,23,0.0,0.0,25,0.00,,,0.00,meteohub,2013-02-16 19:42:00,
2013-02-16 13:47:00,17.4,-10.8,30.17,NW,315,0.0,0.0,27,0.00,,,0.00,meteohub,2013-02-16 19:47:00,
2013-02-16 13:52:00,18.1,-11.0,30.17,NW,315,0.0,1.0,26,0.00,,,0.00,meteohub,2013-02-16 19:52:00,
2013-02-16 13:57:00,19.0,-10.3,30.17,NW,315,0.0,1.0,26,0.00,,,0.00,meteohub,2013-02-16 19:57:00,
2013-02-16 14:02:00,19.6,-8.3,30.17,NW,315,0.0,1.0,28,0.00,,,0.00,meteohub,2013-02-16 20:02:00,
2013-02-16 14:07:00,19.8,-8.1,30.16,NW,315,0.0,0.0,28,0.00,,,0.00,meteohub,2013-02-16 20:07:00,
2013-02-16 14:12:00,19.0,-11.9,30.17,NW,315,0.0,0.0,24,0.00,,,0.00,meteohub,2013-02-16 20:12:00,
2013-02-16 14:17:00,19.8,-8.1,30.17,NW,315,0.0,0.0,28,0.00,,,0.00,meteohub,2013-02-16 20:17:00,
2013-02-16 14:22:00,21.0,-7.1,30.16,North,0,0.0,0.0,28,0.00,,,0.00,meteohub,2013-02-16 20:22:00,
2013-02-16 14:27:00,20.7,-8.0,30.17,NW,315,0.0,0.0,27,0.00,,,0.00,meteohub,2013-02-16 20:27:00,
2013-02-16 14:32:00,21.9,-7.8,30.16,NE,45,0.0,0.0,26,0.00,,,0.00,meteohub,2013-02-16 20:32:00,
2013-02-16 14:37:00,20.7,-8.9,30.16,West,270,0.0,0.0,26,0.00,,,0.00,meteohub,2013-02-16 20:37:00,
2013-02-16 14:42:00,19.6,-9.0,30.17,NW,315,0.0,0.0,27,0.00,,,0.00,meteohub,2013-02-16 20:42:00,
2013-02-16 14:47:00,19.9,-8.7,30.16,NE,45,0.0,0.0,27,0.00,,,0.00,meteohub,2013-02-16 20:47:00,
2013-02-16 14:52:00,21.4,-7.4,30.17,NW,315,0.0,0.0,27,0.00,,,0.00,meteohub,2013-02-16 20:52:00,
2013-02-16 14:57:00,18.7,-13.9,30.17,North,0,0.0,0.0,22,0.00,,,0.00,meteohub,2013-02-16 20:57:00,
2013-02-16 15:02:00,18.3,-13.4,30.17,West,270,0.0,0.0,23,0.00,,,0.00,meteohub,2013-02-16 21:02:00,
2013-02-16 15:07:00,18.3,-12.5,30.17,NE,45,0.0,0.0,24,0.00,,,0.00,meteohub,2013-02-16 21:07:00,
2013-02-16 15:12:00,18.5,-12.3,30.17,North,0,0.0,0.0,24,0.00,,,0.00,meteohub,2013-02-16 21:12:00,
2013-02-16 15:17:00,18.0,-12.8,30.17,NE,45,0.0,0.0,24,0.00,,,0.00,meteohub,2013-02-16 21:17:00,
2013-02-16 15:22:00,18.3,-12.5,30.17,West,270,0.0,0.0,24,0.00,,,0.00,meteohub,2013-02-16 21:22:00,
2013-02-16 15:27:00,17.8,-13.0,30.18,WSW,248,0.0,0.0,24,0.00,,,0.00,meteohub,2013-02-16 21:27:00,
2013-02-16 15:32:00,17.8,-13.0,30.18,NW,315,0.0,0.0,24,0.00,,,0.00,meteohub,2013-02-16 21:32:00,
2013-02-16 15:37:00,18.1,-12.6,30.18,NW,315,0.0,0.0,24,0.00,,,0.00,meteohub,2013-02-16 21:37:00,
2013-02-16 15:42:00,19.6,-7.6,30.18,East,90,0.0,0.0,29,0.00,,,0.00,meteohub,2013-02-16 21:42:00,
2013-02-16 15:47:00,18.0,-13.5,30.18,WNW,293,0.0,0.0,23,0.00,,,0.00,meteohub,2013-02-16 21:47:00,
2013-02-16 15:52:00,18.5,-13.2,30.18,NE,45,3.0,4.0,23,0.00,,,0.00,meteohub,2013-02-16 21:52:00,
2013-02-16 15:57:00,19.4,-9.2,30.18,SW,225,5.0,5.0,27,0.00,,,0.00,meteohub,2013-02-16 21:57:00,
2013-02-16 16:02:00,19.4,-9.9,30.18,NW,315,6.0,8.0,26,0.00,,,0.00,meteohub,2013-02-16 22:02:00,
2013-02-16 16:07:00,19.0,-13.5,30.19,NE,45,5.0,9.0,22,0.00,,,0.00,meteohub,2013-02-16 22:07:00,
2013-02-16 16:12:00,19.4,-9.9,30.19,NE,45,5.0,9.0,26,0.00,,,0.00,meteohub,2013-02-16 22:12:00,
2013-02-16 16:17:00,19.0,-13.5,30.19,NW,315,0.0,9.0,22,0.00,,,0.00,meteohub,2013-02-16 22:17:00,
2013-02-16 16:22:00,17.4,-14.1,30.19,NW,315,0.0,6.0,23,0.00,,,0.00,meteohub,2013-02-16 22:22:00,
2013-02-16 16:27:00,17.4,-12.5,30.19,NW,315,0.0,6.0,25,0.00,,,0.00,meteohub,2013-02-16 22:27:00,
2013-02-16 16:32:00,16.3,-13.4,30.19,North,0,0.0,0.0,25,0.00,,,0.00,meteohub,2013-02-16 22:32:00,
2013-02-16 16:37:00,16.3,-13.4,30.20,NW,315,0.0,0.0,25,0.00,,,0.00,meteohub,2013-02-16 22:37:00,
2013-02-16 16:42:00,15.8,-13.7,30.20,NW,315,0.0,0.0,25,0.00,,,0.00,meteohub,2013-02-16 22:42:00,
2013-02-16 16:47:00,15.1,-13.7,30.20,North,0,0.0,0.0,26,0.00,,,0.00,meteohub,2013-02-16 22:47:00,
2013-02-16 16:52:00,14.4,-13.5,30.21,West,270,0.0,0.0,27,0.00,,,0.00,meteohub,2013-02-16 22:52:00,
2013-02-16 16:57:00,14.2,-13.0,30.21,NW,315,0.0,0.0,28,0.00,,,0.00,meteohub,2013-02-16 22:57:00,
2013-02-16 17:02:00,14.2,-11.6,30.21,West,270,0.0,1.0,30,0.00,,,0.00,meteohub,2013-02-16 23:02:00,
2013-02-16 17:07:00,14.0,-11.7,30.21,NW,315,0.0,1.0,30,0.00,,,0.00,meteohub,2013-02-16 23:07:00,
2013-02-16 17:12:00,13.8,-10.7,30.21,West,270,0.0,1.0,32,0.00,,,0.00,meteohub,2013-02-16 23:12:00,
2013-02-16 17:17:00,13.6,-10.8,30.21,NW,315,0.0,0.0,32,0.00,,,0.00,meteohub,2013-02-16 23:17:00,
2013-02-16 17:22:00,13.6,-10.8,30.22,NW,315,0.0,0.0,32,0.00,,,0.00,meteohub,2013-02-16 23:22:00,
2013-02-16 17:27:00,13.5,-10.8,30.21,NW,315,0.0,0.0,32,0.00,,,0.00,meteohub,2013-02-16 23:27:00,
2013-02-16 17:32:00,13.3,-11.0,30.22,NW,315,0.0,0.0,32,0.00,,,0.00,meteohub,2013-02-16 23:32:00,
2013-02-16 17:37:00,13.1,-10.7,30.22,West,270,0.0,0.0,33,0.00,,,0.00,meteohub,2013-02-16 23:37:00,
2013-02-16 17:42:00,13.3,-10.5,30.22,NW,315,0.0,0.0,33,0.00,,,0.00,meteohub,2013-02-16 23:42:00,
2013-02-16 17:47:00,12.9,-10.8,30.22,NW,315,0.0,0.0,33,0.00,,,0.00,meteohub,2013-02-16 23:47:00,
2013-02-16 17:52:00,12.9,-10.1,30.22,North,0,0.0,0.0,34,0.00,,,0.00,meteohub,2013-02-16 23:52:00,
2013-02-16 17:57:00,12.9,-10.1,30.22,NW,315,0.0,0.0,34,0.00,,,0.00,meteohub,2013-02-16 23:57:00,
2013-02-16 18:02:00,12.7,-10.3,30.23,WNW,293,0.0,0.0,34,0.00,,,0.00,meteohub,2013-02-17 00:02:00,
2013-02-16 18:07:00,12.6,-10.5,30.22,West,270,0.0,0.0,34,0.00,,,0.00,meteohub,2013-02-17 00:07:00,
2013-02-16 18:12:00,12.4,-10.1,30.23,NW,315,0.0,0.0,35,0.00,,,0.00,meteohub,2013-02-17 00:12:00,
2013-02-16 18:17:00,12.2,-9.6,30.23,NW,315,0.0,0.0,36,0.00,,,0.00,meteohub,2013-02-17 00:17:00,
2013-02-16 18:22:00,12.0,-9.2,30.24,NW,315,0.0,0.0,37,0.00,,,0.00,meteohub,2013-02-17 00:22:00,
2013-02-16 18:27:00,12.0,-9.2,30.23,NW,315,0.0,0.0,37,0.00,,,0.00,meteohub,2013-02-17 00:27:00,
2013-02-16 18:32:00,11.8,-8.9,30.24,NW,315,0.0,0.0,38,0.00,,,0.00,meteohub,2013-02-17 00:32:00,
2013-02-16 18:37:00,11.7,-9.0,30.23,North,-999,-999.0,0.0,38,0.00,,,0.00,meteohub,2013-02-17 00:37:00,
2013-02-16 18:42:00,11.7,-8.5,30.24,North,-999,-999.0,0.0,39,0.00,,,0.00,meteohub,2013-02-17 00:42:00,
2013-02-16 18:47:00,11.5,-8.7,30.23,North,-999,-999.0,-999.0,39,0.00,,,0.00,meteohub,2013-02-17 00:47:00,
2013-02-16 18:52:00,11.3,-8.3,30.23,North,-999,-999.0,-999.0,40,0.00,,,0.00,meteohub,2013-02-17 00:52:00,
2013-02-16 18:57:00,10.9,-8.7,30.23,North,-999,-999.0,-999.0,40,0.00,,,0.00,meteohub,2013-02-17 00:57:00,
2013-02-16 19:02:00,10.8,-7.8,30.23,North,-999,-999.0,-999.0,42,0.00,,,0.00,meteohub,2013-02-17 01:02:00,
2013-02-16 19:07:00,10.6,-8.0,30.24,North,-999,-999.0,-999.0,42,0.00,,,0.00,meteohub,2013-02-17 01:07:00,
2013-02-16 19:12:00,10.4,-8.1,30.24,North,-999,-999.0,-999.0,42,0.00,,,0.00,meteohub,2013-02-17 01:12:00,
2013-02-16 19:17:00,10.0,-10.5,30.24,North,-999,-999.0,-999.0,38,0.00,,,0.00,meteohub,2013-02-17 01:17:00,
2013-02-16 19:22:00,9.9,-10.7,30.24,North,-999,-999.0,-999.0,38,0.00,,,0.00,meteohub,2013-02-17 01:22:00,
2013-02-16 19:27:00,9.9,-10.1,30.23,North,-999,-999.0,-999.0,39,0.00,,,0.00,meteohub,2013-02-17 01:27:00,
2013-02-16 19:32:00,10.0,-9.9,30.24,North,-999,-999.0,-999.0,39,0.00,,,0.00,meteohub,2013-02-17 01:32:00,
2013-02-16 19:37:00,9.9,-10.1,30.24,North,-999,-999.0,-999.0,39,0.00,,,0.00,meteohub,2013-02-17 01:37:00,
2013-02-16 19:42:00,9.9,-10.1,30.23,North,-999,-999.0,-999.0,39,0.00,,,0.00,meteohub,2013-02-17 01:42:00,
2013-02-16 19:47:00,9.5,-10.5,30.24,North,-999,-999.0,-999.0,39,0.00,,,0.00,meteohub,2013-02-17 01:47:00,
2013-02-16 19:52:00,9.5,-10.5,30.24,North,-999,-999.0,-999.0,39,0.00,,,0.00,meteohub,2013-02-17 01:52:00,
2013-02-16 19:57:00,9.3,-10.7,30.24,North,-999,-999.0,-999.0,39,0.00,,,0.00,meteohub,2013-02-17 01:57:00,
2013-02-16 20:02:00,9.0,-11.0,30.24,North,-999,-999.0,-999.0,39,0.00,,,0.00,meteohub,2013-02-17 02:02:00,
2013-02-16 20:07:00,8.8,-11.2,30.24,North,-999,-999.0,-999.0,39,0.00,,,0.00,meteohub,2013-02-17 02:07:00,
2013-02-16 20:12:00,8.6,-11.4,30.24,North,-999,-999.0,-999.0,39,0.00,,,0.00,meteohub,2013-02-17 02:12:00,
2013-02-16 20:17:00,8.6,-11.4,30.24,North,-999,-999.0,-999.0,39,0.00,,,0.00,meteohub,2013-02-17 02:17:00,
2013-02-16 20:22:00,8.4,-11.0,30.24,North,-999,-999.0,-999.0,40,0.00,,,0.00,meteohub,2013-02-17 02:22:00,
2013-02-16 20:27:00,8.2,-11.0,30.24,North,-999,-999.0,-999.0,40,0.00,,,0.00,meteohub,2013-02-17 02:27:00,
2013-02-16 20:32:00,8.2,-10.7,30.24,North,-999,-999.0,-999.0,41,0.00,,,0.00,meteohub,2013-02-17 02:32:00,
2013-02-16 20:37:00,8.2,-10.7,30.24,North,-999,-999.0,-999.0,41,0.00,,,0.00,meteohub,2013-02-17 02:37:00,
2013-02-16 20:42:00,8.4,-10.5,30.24,North,-999,-999.0,-999.0,41,0.00,,,0.00,meteohub,2013-02-17 02:42:00,
2013-02-16 20:47:00,8.2,-10.7,30.24,North,-999,-999.0,-999.0,41,0.00,,,0.00,meteohub,2013-02-17 02:47:00,
2013-02-16 20:52:00,8.2,-10.7,30.25,North,-999,-999.0,-999.0,41,0.00,,,0.00,meteohub,2013-02-17 02:52:00,
2013-02-16 20:57:00,7.9,-11.0,30.25,North,-999,-999.0,-999.0,41,0.00,,,0.00,meteohub,2013-02-17 02:57:00,
2013-02-16 21:02:00,7.7,-11.0,30.25,North,-999,-999.0,-999.0,41,0.00,,,0.00,meteohub,2013-02-17 03:02:00,
2013-02-16 21:07:00,7.9,-11.0,30.25,North,-999,-999.0,-999.0,41,0.00,,,0.00,meteohub,2013-02-17 03:07:00,
2013-02-16 21:12:00,8.2,-10.7,30.25,North,-999,-999.0,-999.0,41,0.00,,,0.00,meteohub,2013-02-17 03:12:00,
2013-02-16 21:17:00,8.2,-9.6,30.25,North,-999,-999.0,-999.0,43,0.00,,,0.00,meteohub,2013-02-17 03:17:00,
2013-02-16 21:22:00,8.4,-9.4,30.25,North,-999,-999.0,-999.0,43,0.00,,,0.00,meteohub,2013-02-17 03:22:00,
2013-02-16 21:27:00,8.2,-9.6,30.25,North,-999,-999.0,-999.0,43,0.00,,,0.00,meteohub,2013-02-17 03:27:00,
2013-02-16 21:32:00,7.9,-10.5,30.25,North,-999,-999.0,-999.0,42,0.00,,,0.00,meteohub,2013-02-17 03:32:00,
2013-02-16 21:37:00,7.5,-11.2,30.25,North,-999,-999.0,-999.0,41,0.00,,,0.00,meteohub,2013-02-17 03:37:00,
2013-02-16 21:42:00,7.3,-11.4,30.25,North,-999,-999.0,-999.0,41,0.00,,,0.00,meteohub,2013-02-17 03:42:00,
2013-02-16 21:47:00,7.0,-11.7,30.25,North,-999,-999.0,-999.0,41,0.00,,,0.00,meteohub,2013-02-17 03:47:00,
2013-02-16 21:52:00,6.4,-11.4,30.26,North,-999,-999.0,-999.0,43,0.00,,,0.00,meteohub,2013-02-17 03:52:00,
2013-02-16 21:57:00,6.6,-10.3,30.26,North,-999,-999.0,-999.0,45,0.00,,,0.00,meteohub,2013-02-17 03:57:00,
2013-02-16 22:02:00,6.8,-10.5,30.25,North,-999,-999.0,-999.0,44,0.00,,,0.00,meteohub,2013-02-17 04:02:00,
2013-02-16 22:07:00,7.0,-9.9,30.25,North,-999,-999.0,-999.0,45,0.00,,,0.00,meteohub,2013-02-17 04:07:00,
2013-02-16 22:12:00,7.0,-9.9,30.25,North,-999,-999.0,-999.0,45,0.00,,,0.00,meteohub,2013-02-17 04:12:00,
2013-02-16 22:17:00,7.3,-9.0,30.25,North,-999,-999.0,-999.0,46,0.00,,,0.00,meteohub,2013-02-17 04:17:00,
2013-02-16 22:22:00,7.3,-9.6,30.25,North,-999,-999.0,-999.0,45,0.00,,,0.00,meteohub,2013-02-17 04:22:00,
2013-02-16 22:27:00,7.2,-9.8,30.25,North,-999,-999.0,-999.0,45,0.00,,,0.00,meteohub,2013-02-17 04:27:00,
2013-02-16 22:32:00,7.3,-9.6,30.25,North,-999,-999.0,-999.0,45,0.00,,,0.00,meteohub,2013-02-17 04:32:00,
2013-02-16 22:37:00,7.7,-9.2,30.25,North,-999,-999.0,-999.0,45,0.00,,,0.00,meteohub,2013-02-17 04:37:00,
2013-02-16 22:42:00,7.9,-9.0,30.25,North,-999,-999.0,-999.0,45,0.00,,,0.00,meteohub,2013-02-17 04:42:00,
2013-02-16 22:47:00,8.1,-9.4,30.25,North,-999,-999.0,-999.0,44,0.00,,,0.00,meteohub,2013-02-17 04:47:00,
2013-02-16 22:52:00,7.7,-9.8,30.25,North,-999,-999.0,-999.0,44,0.00,,,0.00,meteohub,2013-02-17 04:52:00,
2013-02-16 22:57:00,7.2,-11.6,30.25,North,-999,-999.0,-999.0,41,0.00,,,0.00,meteohub,2013-02-17 04:57:00,
2013-02-16 23:02:00,6.6,-11.6,30.25,North,-999,-999.0,-999.0,42,0.00,,,0.00,meteohub,2013-02-17 05:02:00,
2013-02-16 23:07:00,6.3,-11.9,30.25,North,-999,-999.0,-999.0,42,0.00,,,0.00,meteohub,2013-02-17 05:07:00,
2013-02-16 23:12:00,6.8,-10.5,30.25,North,-999,-999.0,-999.0,44,0.00,,,0.00,meteohub,2013-02-17 05:12:00,
2013-02-16 23:17:00,7.2,-9.8,30.25,North,-999,-999.0,-999.0,45,0.00,,,0.00,meteohub,2013-02-17 05:17:00,
2013-02-16 23:22:00,7.3,-9.9,30.24,North,-999,-999.0,-999.0,44,0.00,,,0.00,meteohub,2013-02-17 05:22:00,
2013-02-16 23:27:00,7.2,-10.1,30.25,North,-999,-999.0,-999.0,44,0.00,,,0.00,meteohub,2013-02-17 05:27:00,
2013-02-16 23:32:00,7.0,-10.3,30.25,North,-999,-999.0,-999.0,44,0.00,,,0.00,meteohub,2013-02-17 05:32:00,
2013-02-16 23:37:00,6.8,-10.5,30.24,North,-999,-999.0,-999.0,44,0.00,,,0.00,meteohub,2013-02-17 05:37:00,
2013-02-16 23:42:00,6.8,-10.5,30.25,North,-999,-999.0,-999.0,44,0.00,,,0.00,meteohub,2013-02-17 05:42:00,
2013-02-16 23:47:00,7.0,-10.3,30.25,North,-999,-999.0,-999.0,44,0.00,,,0.00,meteohub,2013-02-17 05:47:00,
2013-02-16 23:52:00,6.8,-10.5,30.25,North,-999,-999.0,-999.0,44,0.00,,,0.00,meteohub,2013-02-17 05:52:00,
2013-02-16 23:57:00,6.8,-10.5,30.25,North,-999,-999.0,-999.0,44,0.00,,,0.00,meteohub,2013-02-17 05:57:00,